Location: �terpigny
(49.8910°N, 2.9249°E)
Time: 11:48:28
(UTC+00:00)

Okean-O - Pass Details

Date: 24 October 2021
Orbit: 639 x 640 km, 98.2° (Epoch: 05 December)

Event Time Altitude Azimuth Distance (km) Brightness Sun altitude
Exits shadow 19:40:23 30° 233° (SW) 1,160 4.2 -29.6°
Maximum altitude 19:41:30 34° 263° (W) 1,057 4.1 -29.7°
Drops below altitude 10° 19:45:34 10° 329° (NNW) 2,044 5.8 -30.4°
Sets 19:47:58 0° 339° (NNW) 2,958 6.6 -30.7°
